Location: Ann Arbor
(42.2710°N, 83.7260°W)
Time: 01:58:25
(UTC-04:00)

Tiangong 2 - Visible Passes

Search period start: 17 October 2017 00:00
Search period end: 27 October 2017 00:00
Orbit: 388 x 392 km, 42.8° (Epoch: 16 October)

Date Brightness Start Highest point End Pass type
(mag) Time Alt. Az. Time Alt. Az. Time Alt. Az.
17 Oct 4.3 05:18:05 15° E 05:18:05 15° E 05:18:44 10° E visible
17 Oct 1.4 06:50:25 20° W 06:52:21 53° SSW 06:55:29 10° ESE visible
18 Oct 2.1 05:55:26 43° ESE 05:55:26 43° ESE 05:57:45 10° ESE visible
19 Oct 2.0 06:32:51 30° SW 06:33:25 33° SSW 06:36:20 10° SE visible
20 Oct 3.8 05:37:58 16° SE 05:37:58 16° SE 05:38:45 10° ESE visible
20 Oct 3.4 07:10:40 10° WSW 07:12:01 12° SW 07:13:22 10° S visible
21 Oct 3.3 06:15:31 16° S 06:15:31 16° S 06:16:45 10° SSE visible
